Weather History for Marion Regional, IL

Change the Weather History Date:

Monday, February 24, 2014

  Actual Average Record
Temperature  
Mean Temperature 30 °F -  
Max Temperature 39 °F 49 °F 79 °F (1982)
Min Temperature 21 °F 29 °F 9 °F (1989)
Degree Days  
Heating Degree Days 35    
Moisture  
Dew Point 16 °F    
Average Humidity 59    
Maximum Humidity 86    
Minimum Humidity 28    
Precipitation  
Precipitation 0.00 in - - ()
Sea Level Pressure  
Sea Level Pressure 30.30 in    
Wind  
Wind Speed 4 mph (NNE)    
Max Wind Speed 12 mph    
Max Gust Speed -    
Visibility 12 miles    
Events      
Averages and records for this station are not official NWS values.
T = Trace of Precipitation, MM = Missing Value Source: NWS Daily Summary

Daily Weather History Graph

Daily Weather History Graph

Search for Another Location

Airport:

Trip Planner

Search our weather history database for the weather conditions in past years. The results will help you decide how hot, cold, wet, or windy it might be!

Date:

Astronomy

Feb. 24, 2014 Rise Set
Actual Time 6:34 AM CST 5:44 PM CST
Civil Twilight 6:07 AM CST 6:11 PM CST
Nautical Twilight 5:37 AM CST 6:41 PM CST
Astronomical Twilight 5:07 AM CST 7:12 PM CST
Moon 2:29 AM CST (2/24) 12:48 PM CST (2/24)
Length of Visible Light 12h 03m
Length of Day
11h 10m
Waning Crescent, 28% of the Moon is Illuminated
Feb 24
Waning Crescent
Mar 1
New
Mar 8
First Quarter
Mar 16
Full
Mar 23
Last Quarter

Hourly Weather History & Observations

Time (CST) Temp. Windchill Dew Point Humidity Pressure Visibility Wind Dir Wind Speed Gust Speed Precip Events Conditions
12:15 AM 28.4 °F - 19.4 °F 69% 30.32 in 10.0 mi Calm Calm - N/A   Clear
12:35 AM 28.4 °F - 19.4 °F 69% 30.32 in 10.0 mi Calm Calm - N/A   Clear
12:55 AM 28.4 °F - 19.4 °F 69% 30.31 in 10.0 mi Calm Calm - N/A   Clear
1:15 AM 26.6 °F 22.6 °F 19.4 °F 74% 30.31 in 10.0 mi NNW 3.5 mph - N/A   Clear
1:35 AM 26.6 °F 22.6 °F 19.4 °F 74% 30.32 in 10.0 mi NNW 3.5 mph - N/A   Clear
1:55 AM 26.6 °F 21.2 °F 19.4 °F 74% 30.32 in 10.0 mi North 4.6 mph - N/A   Clear
2:15 AM 26.6 °F 21.2 °F 19.4 °F 74% 30.32 in 10.0 mi North 4.6 mph - N/A   Clear
2:35 AM 26.6 °F 21.2 °F 19.4 °F 74% 30.32 in 10.0 mi North 4.6 mph - N/A   Clear
2:55 AM 26.6 °F 21.2 °F 19.4 °F 74% 30.32 in 10.0 mi North 4.6 mph - N/A   Clear
3:15 AM 26.6 °F 21.2 °F 17.6 °F 69% 30.32 in 10.0 mi North 4.6 mph - N/A   Clear
3:35 AM 24.8 °F 19.1 °F 17.6 °F 74% 30.32 in 10.0 mi North 4.6 mph - N/A   Clear
4:00 AM 24.8 °F 19.1 °F 17.6 °F 74% 30.32 in 10.0 mi North 4.6 mph - N/A   Clear
4:15 AM 24.8 °F 19.1 °F 15.8 °F 69% 30.32 in 10.0 mi NNW 4.6 mph - N/A   Clear
4:35 AM 24.8 °F - 15.8 °F 69% 30.32 in 10.0 mi Calm Calm - N/A   Clear
4:55 AM 23.0 °F - 15.8 °F 74% 30.32 in 10.0 mi Calm Calm - N/A   Clear
5:15 AM 23.0 °F - 17.6 °F 80% 30.33 in 10.0 mi Calm Calm - N/A   Clear
5:35 AM 21.2 °F - 17.6 °F 86% 30.34 in 10.0 mi Calm Calm - N/A   Clear
5:55 AM 21.2 °F 16.4 °F 17.6 °F 86% 30.35 in 10.0 mi North 3.5 mph - N/A   Clear
6:15 AM 23.0 °F - 15.8 °F 74% 30.36 in 10.0 mi Calm Calm - N/A   Clear
6:54 AM 24.8 °F - 15.8 °F 69% 30.38 in 20.0 mi Calm Calm - N/A   Scattered Clouds
7:52 AM 26.6 °F 17.5 °F 17.6 °F 69% 30.38 in 20.0 mi North 9.2 mph - N/A   Scattered Clouds
8:53 AM 30.2 °F 22.6 °F 15.8 °F 55% 30.39 in 20.0 mi ENE 8.1 mph - N/A   Partly Cloudy
9:54 AM 32.0 °F 24.2 °F 8.6 °F 38% 30.39 in 20.0 mi ENE 9.2 mph - N/A   Partly Cloudy
10:54 AM 33.8 °F 27.7 °F 10.4 °F 38% 30.39 in 20.0 mi NNE 6.9 mph - N/A   Partly Cloudy
11:54 AM 35.6 °F 27.5 °F 10.4 °F 35% 30.38 in 20.0 mi NNE 11.5 mph - N/A   Scattered Clouds
12:58 PM 37.4 °F 29.8 °F 10.4 °F 33% 30.33 in 20.0 mi NNW 11.5 mph - N/A   Mostly Cloudy
1:52 PM 39.2 °F 35.0 °F 12.2 °F 33% 30.32 in 20.0 mi North 5.8 mph - N/A   Mostly Cloudy
2:52 PM 39.2 °F 35.0 °F 8.6 °F 28% 30.30 in 20.0 mi NE 5.8 mph - N/A   Partly Cloudy
3:52 PM 39.2 °F 35.0 °F 8.6 °F 28% 30.27 in 20.0 mi North 5.8 mph - N/A   Partly Cloudy
5:52 PM 33.8 °F 28.6 °F 14.0 °F 44% 30.25 in 20.0 mi NNE 5.8 mph - N/A   Clear
6:55 PM 30.2 °F - 17.6 °F 60% 30.25 in 10.0 mi Calm Calm - N/A   Scattered Clouds
7:15 PM 32.0 °F 25.6 °F 15.8 °F 51% 30.25 in 10.0 mi ENE 6.9 mph - N/A   Scattered Clouds
7:35 PM 32.0 °F 26.4 °F 14.0 °F 48% 30.25 in 10.0 mi NE 5.8 mph - N/A   Clear
7:55 PM 32.0 °F 26.4 °F 15.8 °F 51% 30.25 in 10.0 mi NE 5.8 mph - N/A   Clear
8:15 PM 30.2 °F 24.3 °F 15.8 °F 55% 30.25 in 10.0 mi NNE 5.8 mph - N/A   Clear
8:35 PM 30.2 °F 23.4 °F 15.8 °F 55% 30.24 in 10.0 mi NE 6.9 mph - N/A   Clear
8:55 PM 32.0 °F 25.6 °F 15.8 °F 51% 30.24 in 10.0 mi NE 6.9 mph - N/A   Mostly Cloudy
9:15 PM 32.0 °F 26.4 °F 15.8 °F 51% 30.25 in 10.0 mi NNE 5.8 mph - N/A   Overcast
9:35 PM 32.0 °F 24.8 °F 15.8 °F 51% 30.25 in 10.0 mi NE 8.1 mph - N/A   Overcast
9:55 PM 32.0 °F 26.4 °F 15.8 °F 51% 30.25 in 10.0 mi NE 5.8 mph - N/A   Overcast
10:15 PM 32.0 °F 25.6 °F 15.8 °F 51% 30.24 in 10.0 mi ENE 6.9 mph - N/A   Overcast
10:35 PM 32.0 °F 26.4 °F 17.6 °F 55% 30.24 in 10.0 mi NE 5.8 mph - N/A   Overcast
10:55 PM 32.0 °F 26.4 °F 17.6 °F 55% 30.24 in 10.0 mi NNE 5.8 mph - N/A   Overcast
11:15 PM 32.0 °F 27.5 °F 17.6 °F 55% 30.24 in 10.0 mi NE 4.6 mph - N/A   Overcast
11:35 PM 32.0 °F 26.4 °F 15.8 °F 51% 30.22 in 10.0 mi ENE 5.8 mph - N/A   Overcast
11:55 PM 32.0 °F 27.5 °F 17.6 °F 55% 30.23 in 10.0 mi NE 4.6 mph - N/A   Overcast